Location: Saint Peter Port
(49.4500°N, 2.5330°W)
Time: 18:44:25
(UTC+01:00)

Cosmos 2242 Rocket - Visible Passes

Search period start: 28 July 2015 00:00
Search period end: 07 August 2015 00:00
Orbit: 618 x 653 km, 82.5° (Epoch: 28 July)

Date Brightness Start Highest point End Pass type
(mag) Time Alt. Az. Time Alt. Az. Time Alt. Az.
02 Aug 6.4 04:44:46 10° ESE 04:47:17 16° E 04:49:58 10° NE visible
03 Aug 5.7 05:05:53 10° SSE 05:09:39 29° E 05:13:29 10° NNE visible
05 Aug 6.5 04:15:02 10° ESE 04:17:01 13° E 04:19:13 10° NE visible
06 Aug 5.8 04:35:49 10° SE 04:39:21 25° E 04:43:00 10° NNE visible
